Flag for Albania Weather past 2 weeks in Tirana, Albania

Now
70 °F

Partly sunny.


Feels Like: 70 °F
Forecast: 59 / 89 °F
Wind: No wind

Location: Tirana Airport

Current Time: Jul 1, 2015 at 9:28:37 AM

Latest Report: Jul 1, 2015 at 8:50 AM


Visibility: N/A

Pressure: 30.09 "Hg

Humidity: 69%

Dew point: 59 °F

Location of TiranaLocation

Historic Weather in Tirana — Graph

°F

Tirana temperature yesterday

Maximum temperature yesterday: 82 °F (at 1:20 PM)
Minimum temperature yesterday: 66 °F (at 1:50 AM)
Average temperature yesterday: 72 °F

Past Weeks' High & Low Weather Summary

 TemperatureHumidityPressure
High86 °F (Jun 29, 1:50 PM)94% (Jun 17, 3:50 AM)30.09 "Hg (Jun 17, 3:50 AM)
Low55 °F (Jun 22, 3:50 AM)28% (Jun 22, 11:50 AM)29.74 "Hg (Jun 18, 5:20 AM)
Average70 °F63%29.93 "Hg
* Reported Jun 16 8:20 AM — Jul 1 8:20 AM, Tirana, Weather by CustomWeather, © 2015

Note: Actual official high and low records may vary slightly from our data, if they occured in-between our weather recording intervals... More about our weather records

Advertising

Tirana weather history for previous 24 hours

 ConditionsComfort  
Time TempWeatherWind HumidityBarometerVisibility
8:20 AM
Wed, Jul 1
68 °FScattered clouds.No wind73%30.09 "HgN/A
7:50 AM66 °FScattered clouds.No wind78%30.09 "HgN/A
7:20 AM66 °FSunny.No wind83%30.09 "Hg10 mi
6:50 AM66 °FPassing clouds.3 mph83%30.09 "HgN/A
6:20 AM63 °FSunny.3 mph83%30.07 "Hg10 mi
5:50 AM64 °FPassing clouds.3 mph78%30.07 "HgN/A
5:20 AM61 °FClear.5 mph88%30.07 "Hg10 mi
4:50 AM63 °FClear.2 mph83%30.07 "Hg10 mi
4:20 AM63 °FPassing clouds.5 mph83%30.07 "HgN/A
3:50 AM63 °FPassing clouds.3 mph88%30.07 "HgN/A
3:20 AM63 °FClear.No wind88%30.07 "Hg10 mi
2:50 AM63 °FClear.6 mph94%30.07 "Hg10 mi
2:20 AM64 °FClear.2 mph88%30.07 "Hg10 mi
1:50 AM64 °FClear.1 mph88%30.07 "Hg10 mi
1:20 AM64 °FClear.No wind88%30.07 "Hg10 mi
12:50 AM64 °FClear.5 mph94%30.07 "Hg10 mi
12:20 AM66 °FClear.2 mph88%30.09 "Hg10 mi
11:50 PM
Tue, Jun 30
66 °FClear.No wind88%30.09 "Hg10 mi
11:20 PM68 °FClear.2 mph83%30.09 "Hg10 mi
10:50 PM66 °FPassing clouds.3 mph88%30.09 "HgN/A
10:20 PM68 °FClear.2 mph83%30.09 "Hg10 mi
9:50 PM68 °FClear.No wind83%30.07 "Hg10 mi
9:20 PM70 °FClear.2 mph78%30.07 "Hg10 mi
8:50 PM72 °FScattered clouds.5 mph73%30.07 "HgN/A
8:20 PM72 °FScattered clouds.5 mph73%30.07 "HgN/A
7:50 PM72 °FScattered clouds.8 mph69%30.04 "HgN/A
6:50 PM77 °FScattered clouds.8 mph54%30.04 "HgN/A
6:20 PM77 °FScattered clouds.13 mph54%30.04 "HgN/A
5:50 PM77 °FScattered clouds.15 mph57%30.04 "HgN/A
4:50 PM79 °FScattered clouds.13 mph48%30.01 "HgN/A
4:20 PM81 °FScattered clouds.12 mph45%30.01 "HgN/A
3:50 PM79 °FScattered clouds.12 mph48%30.01 "HgN/A
2:50 PM81 °FScattered clouds.9 mph51%30.01 "HgN/A
2:20 PM82 °FPassing clouds.3 mph40%30.01 "HgN/A
1:50 PM81 °FPassing clouds.5 mph42%30.04 "HgN/A
1:20 PM82 °FPassing clouds.6 mph45%30.04 "HgN/A
12:50 PM81 °FScattered clouds.6 mph48%30.04 "HgN/A
12:20 PM81 °FPassing clouds.3 mph51%30.04 "HgN/A
11:50 AM77 °FPassing clouds.5 mph57%30.04 "HgN/A
11:20 AM75 °FScattered clouds.2 mph61%30.07 "HgN/A
10:50 AM75 °FScattered clouds.2 mph61%30.07 "HgN/A
10:20 AM75 °FScattered clouds.No wind65%30.07 "HgN/A
9:50 AM70 °FScattered clouds.No wind73%30.04 "HgN/A
9:20 AM72 °FBroken clouds.3 mph69%30.04 "HgN/A
Weather by CustomWeather, © 2015

See weather overviewHow to use our weather pages